2017/11/13,16:38:46,5,9,25.0,35.2,0
2017/11/13,16:39:00,5,9,25.0,35.1,0
2017/11/13,16:39:57,5,9,25.0,35.8,0
2017/11/13,16:40:00,5,9,25.0,35.8,0
2017/11/13,16:41:07,5,9,24.9,35.9,0
2017/11/13,16:42:00,5,9,24.8,35.5,0
2017/11/13,16:43:00,5,9,24.7,35.6,0
2017/11/13,16:44:00,5,9,24.7,35.9,0
2017/11/13,16:45:00,5,9,24.7,36.1,0
2017/11/13,16:46:00,5,9,24.6,36.0,0
2017/11/13,16:47:00,5,9,24.5,36.1,0
2017/11/13,16:48:00,5,9,24.4,36.2,0
2017/11/13,16:49:00,5,9,24.4,36.4,0
2017/11/13,16:50:00,5,9,24.4,36.5,0
2017/11/13,16:51:00,5,9,24.4,36.4,0
2017/11/13,16:52:00,5,9,24.4,36.3,0
2017/11/13,16:53:00,5,9,24.5,36.2,0
2017/11/13,16:54:00,5,9,24.6,36.2,0
2017/11/13,16:55:00,5,9,24.6,35.8,0
2017/11/13,16:56:00,5,9,24.7,35.6,0
2017/11/13,16:57:00,5,9,24.7,35.8,0
2017/11/13,16:58:00,5,9,24.7,35.8,0
2017/11/13,16:59:00,5,9,24.7,35.9,0
2017/11/13,17:00:00,5,9,24.7,35.6,0
2017/11/13,17:01:00,5,9,24.7,35.6,0
2017/11/13,17:02:00,5,9,24.7,35.8,0
2017/11/13,17:03:00,5,9,24.6,35.9,0
2017/11/13,17:04:00,5,9,24.6,36.3,0
2017/11/13,17:05:00,5,9,24.6,36.1,0
2017/11/13,17:06:00,5,9,24.6,36.1,0
2017/11/13,17:07:00,5,9,24.5,36.3,0
2017/11/13,17:08:00,5,9,24.5,36.7,0
2017/11/13,17:09:00,5,9,24.5,36.7,0
2017/11/13,17:10:23,5,0,24.4,36.5,2000
2017/11/13,17:11:00,5,0,24.4,36.4,2000
2017/11/13,17:12:00,5,0,24.3,36.5,2000
2017/11/13,17:13:00,5,0,24.4,36.9,2000
2017/11/13,17:14:00,5,0,24.5,36.3,2000
2017/11/13,17:15:00,5,0,24.5,36.2,2000
2017/11/13,17:15:56,5,0,24.6,37.1,2000
2017/11/13,17:16:00,5,0,24.6,37.2,2000
2017/11/13,17:17:00,5,0,24.6,36.6,2000
2017/11/13,17:18:00,5,0,24.7,35.8,2000
2017/11/13,17:19:00,5,0,24.6,35.8,2000
2017/11/13,17:20:00,5,0,24.6,35.8,2000
2017/11/13,17:21:00,5,0,24.5,36.7,2000
2017/11/13,17:21:48,5,0,24.6,37.1,2000
2017/11/13,17:22:08,5,0,24.6,36.3,2000
2017/11/13,17:23:00,5,0,24.6,36.2,2000
2017/11/13,17:24:00,5,0,24.6,36.2,2000
2017/11/13,17:25:00,5,0,24.6,36.1,2000
2017/11/13,17:26:00,5,0,24.5,36.0,2000
2017/11/13,17:26:57,5,0,24.4,36.4,2000
2017/11/13,17:27:00,5,0,24.4,36.5,2000
2017/11/13,17:28:00,5,0,24.4,37.8,2000
2017/11/13,17:29:00,5,0,24.5,36.6,2000
2017/11/13,17:30:09,5,0,24.3,37.0,0
2017/11/13,17:31:00,5,0,24.3,36.7,0
2017/11/13,17:32:00,5,0,24.3,36.8,0
2017/11/13,17:33:00,5,0,24.2,37.0,0
2017/11/13,17:34:00,5,0,24.2,36.8,0
2017/11/13,17:34:51,5,0,24.2,36.9,0
2017/11/13,17:35:00,5,0,24.2,36.8,0
2017/11/13,17:36:00,5,0,24.3,36.7,0
2017/11/13,17:37:00,5,0,24.3,36.6,0
2017/11/13,17:38:00,5,0,24.2,36.8,0
2017/11/13,17:39:00,5,0,24.2,36.7,0
2017/11/13,17:40:00,5,0,24.2,36.7,0
2017/11/13,17:41:00,5,0,24.1,36.8,0
2017/11/13,17:42:00,5,0,24.1,36.9,0
2017/11/13,17:43:00,5,0,24.1,37.0,0
2017/11/13,17:44:00,5,0,24.0,37.1,0
2017/11/13,17:45:00,5,0,23.9,37.3,0
2017/11/13,17:46:00,5,0,23.9,37.4,0
2017/11/13,17:47:00,5,0,23.9,37.5,0
2017/11/13,17:48:00,5,0,23.9,37.4,0
2017/11/13,17:49:00,5,0,23.9,37.4,0
2017/11/13,17:50:00,5,0,23.9,37.4,0
2017/11/13,17:51:00,5,0,23.9,37.4,0
2017/11/13,17:52:00,5,0,23.8,37.5,0
2017/11/13,17:53:00,5,0,23.7,40.1,0
2017/11/13,17:54:00,5,0,23.7,38.7,0
2017/11/13,17:55:00,5,0,23.7,38.5,0
2017/11/13,17:56:00,5,0,23.7,38.1,0
2017/11/13,17:57:00,5,0,23.6,38.4,0
2017/11/13,17:58:00,5,0,23.6,38.3,0
2017/11/13,17:59:00,5,0,23.6,38.1,0
2017/11/13,18:00:00,5,0,23.6,38.8,0
2017/11/13,18:01:02,5,0,23.5,39.1,0
2017/11/13,18:02:00,5,0,23.5,38.2,0
2017/11/13,18:03:00,5,0,23.6,38.2,0
2017/11/13,18:04:00,5,0,23.6,38.1,0
2017/11/13,18:05:00,5,0,23.6,38.0,0
2017/11/13,18:06:00,5,0,23.6,38.0,0
2017/11/13,18:07:00,5,0,23.6,38.1,0
2017/11/13,18:08:00,5,0,23.6,37.9,0
2017/11/13,18:09:00,5,0,23.5,38.1,0
2017/11/13,18:10:00,5,0,23.5,38.2,0
2017/11/13,18:11:00,5,0,23.4,38.0,0
2017/11/13,18:12:00,5,0,23.4,38.3,0
2017/11/13,18:13:00,5,0,23.4,38.4,0
2017/11/13,18:14:00,5,0,23.4,38.6,0
2017/11/13,18:15:00,5,0,23.4,38.7,0
2017/11/13,18:16:00,5,0,23.4,38.7,0
2017/11/13,18:17:00,5,0,23.4,38.7,0
2017/11/13,18:18:00,5,0,23.4,38.5,0
2017/11/13,18:19:00,5,0,23.3,38.6,0
2017/11/13,18:20:00,5,0,23.3,38.7,0
2017/11/13,18:21:00,5,0,23.3,38.7,0
2017/11/13,18:22:00,5,0,23.4,38.8,0
2017/11/13,18:23:00,5,0,23.4,38.7,0
2017/11/13,18:24:00,5,0,23.4,38.6,0
2017/11/13,18:25:00,5,0,23.4,38.5,0
2017/11/13,18:26:00,5,0,23.4,38.4,0
2017/11/13,18:27:00,5,0,23.4,38.4,0
2017/11/13,18:28:00,5,0,23.4,38.4,0
2017/11/13,18:29:00,5,0,23.3,38.5,0
2017/11/13,18:30:00,5,0,23.3,38.5,0
2017/11/13,18:31:00,5,0,23.2,38.6,0
2017/11/13,18:32:00,5,0,23.2,38.8,0
2017/11/13,18:33:00,5,0,23.2,38.7,0
2017/11/13,18:34:00,5,0,23.2,38.7,0
2017/11/13,18:35:00,5,0,23.2,38.7,0
2017/11/13,18:36:00,5,0,23.2,38.7,0
2017/11/13,18:37:00,5,0,23.2,38.7,0
2017/11/13,18:38:00,5,0,23.2,38.8,0
2017/11/13,18:39:00,5,0,23.2,38.8,0
2017/11/13,18:40:00,5,0,23.1,38.9,0
2017/11/13,18:41:00,5,0,23.1,38.9,0
2017/11/13,18:42:00,5,0,23.1,38.9,0
2017/11/13,18:43:00,5,0,23.1,38.9,0
2017/11/13,18:44:00,5,0,23.1,38.9,0
2017/11/13,18:45:00,5,0,23.1,39.0,0
2017/11/13,18:46:00,5,0,23.0,39.0,0
2017/11/13,18:47:00,5,0,23.0,39.1,0
2017/11/13,18:48:00,5,0,23.0,39.1,0
2017/11/13,18:49:00,5,0,23.0,39.1,0
2017/11/13,18:50:00,5,0,23.0,39.1,0
2017/11/13,18:51:00,5,0,22.9,39.1,0
2017/11/13,18:52:00,5,0,22.9,39.0,0
2017/11/13,18:53:00,5,0,22.9,39.0,0
2017/11/13,18:54:00,5,0,22.9,39.1,0
2017/11/13,18:55:00,5,0,22.9,39.1,0
2017/11/13,18:56:00,5,0,22.9,39.0,0
2017/11/13,18:57:00,5,0,22.8,39.1,0
2017/11/13,18:58:00,5,0,22.8,39.1,0
2017/11/13,18:59:00,5,0,22.8,39.0,0
2017/11/13,19:00:00,5,0,22.8,39.1,0
2017/11/13,19:01:00,5,0,22.8,39.1,0
2017/11/13,19:02:00,5,0,22.8,39.1,0
2017/11/13,19:03:00,5,0,22.8,39.1,0
2017/11/13,19:04:00,5,0,22.8,39.0,0
2017/11/13,19:05:00,5,0,22.8,39.0,0
2017/11/13,19:06:00,5,0,22.8,39.0,0
2017/11/13,19:07:00,5,0,22.7,38.9,0
2017/11/13,19:08:00,5,0,22.7,39.0,0
2017/11/13,19:09:00,5,0,22.7,38.9,0
2017/11/13,19:10:00,5,0,22.7,39.1,0
2017/11/13,19:11:00,5,0,22.7,39.1,0
2017/11/13,19:12:00,5,0,22.7,39.1,0
2017/11/13,19:13:00,5,0,22.7,39.1,0
2017/11/13,19:14:00,5,0,22.7,39.1,0
2017/11/13,19:15:00,5,0,22.7,39.1,0
2017/11/13,19:16:00,5,0,22.7,39.1,0
2017/11/13,19:17:00,5,0,22.7,39.1,0
2017/11/13,19:18:00,5,0,22.7,39.1,0
2017/11/13,19:19:00,5,0,22.7,39.1,0
2017/11/13,19:20:00,5,0,22.7,39.1,0
2017/11/13,19:21:00,5,0,22.7,39.1,0
2017/11/13,19:22:00,5,0,22.7,38.9,0
2017/11/13,19:23:00,5,0,22.7,39.1,0
2017/11/13,19:24:00,5,0,22.7,38.9,0
2017/11/13,19:25:00,5,0,22.7,38.8,0
2017/11/13,19:26:00,5,0,22.7,39.3,0
2017/11/13,19:27:00,5,0,22.8,38.7,0
2017/11/13,19:28:00,5,0,22.8,38.7,0
2017/11/13,19:29:00,5,0,22.7,38.9,0
2017/11/13,19:30:00,5,0,22.7,38.9,0
2017/11/13,19:31:00,5,0,22.7,39.0,0
2017/11/13,19:32:00,5,0,22.7,39.2,0
2017/11/13,19:33:00,5,0,22.7,38.9,0
2017/11/13,19:34:00,5,0,22.7,38.9,0
2017/11/13,19:35:00,5,0,22.6,39.0,0
2017/11/13,19:36:00,5,0,22.7,39.1,0
2017/11/13,19:37:00,5,0,22.7,39.1,0
2017/11/13,19:38:00,5,0,22.7,39.1,0
2017/11/13,19:39:00,5,0,22.6,39.3,0
2017/11/13,19:40:00,5,0,22.6,39.1,0
2017/11/13,19:41:00,5,0,22.6,39.1,0
2017/11/13,19:42:00,5,0,22.5,39.0,0
2017/11/13,19:43:00,5,0,22.5,39.3,0
2017/11/13,19:44:00,5,0,22.5,39.4,0
2017/11/13,19:45:00,5,0,22.5,39.3,0
2017/11/13,19:46:00,5,0,22.5,39.2,0
2017/11/13,19:47:00,5,0,22.6,39.2,0
2017/11/13,19:48:00,5,0,22.5,39.2,0
2017/11/13,19:49:00,5,0,22.5,39.2,0
2017/11/13,19:50:00,5,0,22.5,39.3,0
2017/11/13,19:51:00,5,0,22.5,39.3,0
2017/11/13,19:52:00,5,0,22.5,39.2,0
2017/11/13,19:53:00,5,0,22.5,39.2,0
2017/11/13,19:54:00,5,0,22.5,39.1,0
2017/11/13,19:55:00,5,0,22.5,39.2,0
2017/11/13,19:56:00,5,0,22.5,39.3,0
2017/11/13,19:57:00,5,0,22.5,39.2,0
2017/11/13,19:58:00,5,0,22.5,39.4,0
2017/11/13,19:59:00,5,0,22.4,39.4,0
2017/11/13,20:00:00,5,0,22.5,39.4,0
2017/11/13,20:01:00,5,0,22.5,39.3,0
2017/11/13,20:02:00,5,0,22.4,39.4,0
2017/11/13,20:03:00,5,0,22.4,39.4,0
2017/11/13,20:04:00,5,0,22.4,39.4,0
2017/11/13,20:05:00,5,0,22.4,39.4,0
2017/11/13,20:06:00,5,0,22.4,39.4,0
2017/11/13,20:07:00,5,0,22.4,39.4,0
2017/11/13,20:08:00,5,0,22.4,39.4,0
2017/11/13,20:09:00,5,0,22.4,39.4,0
2017/11/13,20:10:00,5,0,22.4,39.4,0
2017/11/13,20:11:00,5,0,22.3,39.5,0
2017/11/13,20:12:00,5,0,22.3,39.9,0
2017/11/13,20:13:00,5,0,22.3,39.6,0
2017/11/13,20:14:00,5,0,22.3,39.9,0
2017/11/13,20:15:00,5,0,22.3,39.5,0
2017/11/13,20:16:00,5,0,22.3,39.6,0
2017/11/13,20:17:00,5,0,22.3,39.5,0
2017/11/13,20:18:00,5,0,22.3,39.5,0
2017/11/13,20:19:00,5,0,22.3,39.6,0
2017/11/13,20:20:00,5,0,22.3,39.7,0
2017/11/15,16:40:10,5,0,218.0,901.5,0
2017/11/15,16:41:00,5,0,218.3,881.3,0
2017/11/15,16:42:00,5,0,218.3,873.5,0
2017/11/15,16:43:00,5,0,218.2,873.0,0
2017/11/15,16:44:00,5,0,218.3,872.1,0
2017/11/15,16:45:00,5,0,218.3,868.3,0
2017/11/15,16:46:00,5,0,218.5,870.5,0
2017/11/15,16:47:00,5,0,218.3,873.4,0
2017/11/15,16:48:00,5,0,218.4,872.8,0
2017/11/15,16:49:00,5,0,218.7,868.3,0
2017/11/15,16:50:03,5,0,218.2,875.4,0
2017/11/15,16:51:00,5,0,218.2,874.8,0
2017/11/15,16:52:00,5,0,218.2,879.0,0
2017/11/15,16:53:00,5,0,218.8,874.1,0
2017/11/15,16:54:00,5,0,219.3,865.6,0
2017/11/15,16:55:00,5,0,220.0,856.4,0
2017/11/15,16:56:00,5,0,220.0,855.9,0
2017/11/15,16:57:00,5,0,219.9,859.7,0
2017/11/15,16:58:00,5,0,218.7,864.4,0
2017/11/15,16:59:00,5,0,218.5,870.2,0
2017/11/15,16:59:43,5,0,251264.7,130583.3,0
2017/11/15,17:00:00,5,0,251702.2,130127.8,0
2017/11/15,17:01:00,5,0,251886.9,129538.9,0
2017/11/15,17:02:00,5,0,251293.9,130705.6,0
2017/11/15,17:03:34,5,0,23.6,37.0,0
2017/11/15,17:04:00,5,0,23.6,37.4,0
2017/11/15,17:05:00,5,0,23.7,36.7,0
2017/11/15,17:06:00,5,0,24.0,35.9,0
2017/11/15,17:07:00,5,0,24.2,35.5,0
2017/11/15,17:08:00,5,0,24.4,36.0,0
2017/11/15,17:09:00,5,0,24.6,37.3,0
2017/11/15,17:10:00,5,0,25.0,36.3,0
2017/11/15,17:11:00,5,0,25.1,35.4,0
2017/11/15,17:12:00,5,0,25.1,35.1,0
2017/11/15,17:13:00,5,0,25.0,35.5,0
2017/11/15,17:14:00,5,0,24.9,35.4,0
2017/11/15,17:15:00,5,0,25.0,35.2,0
2017/11/15,17:16:00,5,0,25.3,34.4,0
2017/11/15,17:17:00,5,0,25.1,34.6,0
2017/11/15,17:18:00,5,0,24.3,35.6,0
2017/11/15,17:19:00,5,0,23.7,36.7,0
2017/11/15,17:20:00,5,0,23.5,37.1,0
2017/11/15,17:21:00,5,0,23.4,37.3,0
2017/11/15,17:22:00,5,0,23.5,37.0,0
2017/11/15,17:23:00,5,0,23.7,36.7,0
2017/11/15,17:24:00,5,0,23.9,36.4,0
2017/11/15,17:25:00,5,0,24.0,36.1,0
2017/11/15,17:26:00,5,0,24.1,36.0,0
2017/11/15,17:27:00,5,0,24.1,35.9,0
2017/11/15,17:28:00,5,0,23.8,36.4,0
2017/11/15,17:29:00,5,0,23.7,36.7,0
2017/11/15,17:30:00,5,0,23.6,36.7,0
2017/11/15,17:31:00,5,0,23.3,37.5,0
2017/11/15,17:32:00,5,0,23.5,37.0,0
2017/11/15,17:33:00,5,0,23.6,36.9,0
2017/11/15,17:34:00,5,0,23.3,37.4,0
2017/11/15,17:35:00,5,0,23.4,37.2,0
2017/11/15,17:36:00,5,0,23.6,37.0,0
2017/11/15,17:39:48,5,0,24.4,35.7,0
2017/11/15,17:40:33,5,0,24.2,35.9,0
2017/11/15,17:41:00,5,0,24.1,35.9,0
2017/11/15,17:42:00,5,0,24.0,36.3,0
2017/11/15,17:43:00,5,0,24.0,35.9,0
2017/11/15,17:44:00,5,0,23.9,36.0,0
2017/11/15,17:45:32,5,0,23.6,36.8,0
2017/11/15,17:46:00,5,0,23.6,36.8,0
2017/11/15,18:19:38,5,0,22.6,39.1,0
2017/11/15,18:23:39,5,0,22.5,38.5,0
2017/11/15,19:10:51,5,0,22.4,37.4,0
2017/11/15,19:11:00,5,0,22.4,37.2,0
2017/11/15,19:12:32,5,0,22.3,37.1,0
2017/11/15,19:13:00,5,0,22.3,37.2,0
2017/11/15,19:14:26,5,0,22.3,37.1,0
2017/11/15,19:15:00,5,0,22.3,37.1,0
2017/11/15,19:16:37,5,0,22.1,37.4,0
2017/11/16,08:29:31,5,0,19.8,36.1,0
2017/11/16,08:34:22,5,0,19.7,35.6,0
2017/11/16,08:35:00,5,0,19.6,35.6,0
2017/11/16,08:36:00,5,0,19.5,36.3,0
2017/11/16,08:37:00,5,0,19.7,36.0,0
2017/11/16,08:38:00,5,0,19.9,35.5,0
2017/11/16,08:39:00,5,0,19.8,35.4,0
2017/11/16,08:40:00,5,0,19.8,35.7,0
2017/11/16,08:41:00,5,0,19.8,35.6,0
2017/11/16,08:42:00,5,0,19.7,35.9,0
2017/11/16,08:43:00,5,0,19.7,36.2,0
2017/11/16,08:44:00,5,0,19.7,36.2,0
2017/11/16,08:45:00,5,0,19.6,36.3,0
2017/11/16,08:46:00,5,0,19.6,36.2,0
2017/11/16,08:47:00,5,0,19.6,36.2,0
2017/11/16,08:48:00,5,0,19.6,36.1,0
2017/11/16,08:49:00,5,0,19.6,36.1,0
2017/11/16,08:50:00,5,0,19.6,36.0,0
2017/11/16,08:51:00,5,0,19.4,36.4,0
2017/11/16,08:52:00,5,0,19.4,36.4,0
2017/11/16,08:53:00,5,0,19.4,36.4,0
2017/11/16,08:54:00,5,0,19.4,36.3,0
2017/11/16,08:55:00,5,0,19.5,36.1,0
2017/11/16,08:56:00,5,0,19.6,36.0,0
2017/11/16,08:57:00,5,0,19.5,36.2,0
2017/11/16,08:58:00,5,0,19.5,36.2,0
2017/11/16,08:59:00,5,0,19.6,36.2,0
2017/11/16,09:00:00,5,0,19.6,36.1,0
2017/11/16,09:01:00,5,0,19.5,36.4,0
2017/11/16,09:02:00,5,0,19.5,36.4,0
2017/11/16,09:03:00,5,0,19.4,36.7,0
2017/11/16,09:04:00,5,0,19.4,36.7,0
2017/11/16,09:05:00,5,0,19.4,36.7,0
2017/11/16,09:06:00,5,0,19.6,36.5,0
2017/11/16,09:07:00,5,0,19.7,36.4,0
2017/11/16,09:08:00,5,0,19.6,36.4,0
2017/11/16,09:09:00,5,0,19.6,36.4,0
2017/11/16,09:10:00,5,0,19.6,36.3,0
2017/11/16,09:11:00,5,0,19.6,36.3,0
2017/11/16,09:12:00,5,0,19.7,36.1,0
2017/11/16,09:13:00,5,0,19.7,36.1,0
2017/11/16,09:14:00,5,0,19.6,36.4,0
2017/11/16,09:15:00,5,0,19.6,36.7,0
2017/11/16,09:16:00,5,0,19.7,36.6,0
2017/11/16,09:17:00,5,0,19.8,36.3,0
2017/11/16,09:18:00,5,0,19.8,36.1,0
2017/11/16,09:19:00,5,0,19.7,36.2,0
2017/11/16,09:20:00,5,0,19.8,36.1,0
2017/11/16,09:21:00,5,0,19.8,36.2,0
2017/11/16,09:22:15,5,0,20.1,36.4,0
2017/11/16,10:26:01,5,0,22.3,34.5,0
2017/11/16,10:29:11,5,0,22.0,34.8,0
2017/11/16,10:30:00,5,0,-45.0,0.0,400
2017/11/16,10:31:00,5,0,-45.0,0.0,400
2017/11/16,10:32:00,5,0,-45.0,0.0,400
2017/11/16,10:33:00,5,0,-45.0,0.0,400
2017/11/16,10:34:00,5,0,-45.0,0.0,400
2017/11/16,10:35:00,5,0,-45.0,0.0,400
2017/11/16,10:36:35,5,0,21.5,35.5,0
2017/11/16,17:13:26,5,0,19.7,36.6,0
2017/11/16,17:14:00,5,0,-45.0,0.0,400
2017/11/16,17:15:00,5,0,-45.0,0.0,400
2017/11/16,17:16:00,5,0,-45.0,0.0,400
2017/11/16,17:17:00,5,0,-45.0,0.0,400
2017/11/16,17:18:00,5,0,-45.0,0.0,400
2017/11/16,17:19:00,5,0,-45.0,0.0,400
2017/11/16,17:20:00,5,0,-45.0,0.0,400
2017/11/16,17:21:00,5,0,-45.0,0.0,400
2017/11/16,17:22:00,5,0,-45.0,0.0,400
2017/11/16,17:23:00,5,0,-45.0,0.0,400
2017/11/16,17:24:00,5,0,-45.0,0.0,400
2017/11/16,17:25:00,5,0,-45.0,0.0,400
2017/11/16,17:26:00,5,0,-45.0,0.0,400
2017/11/16,17:27:00,5,0,-45.0,0.0,400
2017/11/16,17:28:00,5,0,-45.0,0.0,400
2017/11/16,17:29:00,5,0,-45.0,0.0,400
2017/11/16,17:30:00,5,0,-45.0,0.0,400
2017/11/16,17:31:00,5,0,-45.0,0.0,400
2017/11/16,17:32:00,5,0,-45.0,0.0,400
2017/11/16,17:33:00,5,0,-45.0,0.0,400
2017/11/16,17:34:00,5,0,-45.0,0.0,400
2017/11/16,17:35:00,5,0,-45.0,0.0,400
2017/11/16,17:36:00,5,0,-45.0,0.0,400
2017/11/16,17:37:00,5,0,-45.0,0.0,400
2017/11/16,17:38:00,5,0,-45.0,0.0,400
2017/11/16,17:39:00,5,0,-45.0,0.0,400
2017/11/16,17:40:00,5,0,-45.0,0.0,400
2017/11/16,17:41:00,5,0,-45.0,0.0,400
2017/11/16,17:42:00,5,0,-45.0,0.0,400
2017/11/16,17:43:00,5,0,-45.0,0.0,400
2017/11/16,17:44:00,5,0,-45.0,0.0,400
2017/11/16,17:45:00,5,0,-45.0,0.0,400
2017/11/16,17:46:00,5,0,-45.0,0.0,400
2017/11/16,17:47:00,5,0,-45.0,0.0,400
2017/11/16,17:48:00,5,0,-45.0,0.0,400
2017/11/16,17:49:00,5,0,-45.0,0.0,400
2017/11/16,17:50:00,5,0,-45.0,0.0,400
2017/11/16,17:51:00,5,0,-45.0,0.0,400
2017/11/16,17:52:00,5,0,-45.0,0.0,400
2017/11/16,17:53:00,5,0,-45.0,0.0,400
2017/11/16,17:54:00,5,0,-45.0,0.0,400
2017/11/16,17:55:00,5,0,-45.0,0.0,400
2017/11/16,17:56:00,5,0,-45.0,0.0,400
2017/11/16,17:57:00,5,0,-45.0,0.0,400
2017/11/16,17:58:00,5,0,-45.0,0.0,400
2017/11/16,17:59:00,5,0,-45.0,0.0,400
2017/11/16,18:00:00,5,0,-45.0,0.0,400
2017/11/16,18:01:00,5,0,-45.0,0.0,400
2017/11/16,18:02:00,5,0,-45.0,0.0,400
2017/11/16,18:03:00,5,0,-45.0,0.0,400
2017/11/16,18:04:00,5,0,-45.0,0.0,400
2017/11/16,18:05:00,5,0,-45.0,0.0,400
2017/11/16,18:06:00,5,0,-45.0,0.0,400
2017/11/16,18:07:00,5,0,-45.0,0.0,400
2017/11/16,18:08:00,5,0,-45.0,0.0,400
2017/11/16,18:09:00,5,0,-45.0,0.0,400
2017/11/16,18:10:00,5,0,-45.0,0.0,400
2017/11/16,18:11:00,5,0,-45.0,0.0,400
2017/11/16,18:12:00,5,0,-45.0,0.0,400
2017/11/16,18:13:00,5,0,-45.0,0.0,400
2017/11/16,18:14:00,5,0,-45.0,0.0,400
2017/11/16,18:15:00,5,0,-45.0,0.0,400
2017/11/16,18:16:00,5,0,-45.0,0.0,400
2017/11/16,18:17:00,5,0,-45.0,0.0,400
2017/11/16,18:18:00,5,0,-45.0,0.0,400
2017/11/16,18:19:00,5,0,-45.0,0.0,400
2017/11/16,18:20:00,5,0,-45.0,0.0,400
2017/11/16,18:21:00,5,0,-45.0,0.0,400
2017/11/16,18:22:00,5,0,-45.0,0.0,400
2017/11/16,18:23:00,5,0,-45.0,0.0,400
2017/11/16,18:24:00,5,0,-45.0,0.0,400
2017/11/16,18:25:00,5,0,-45.0,0.0,400
2017/11/16,18:26:00,5,0,-45.0,0.0,400
2017/11/16,18:27:00,5,0,-45.0,0.0,400
2017/11/16,18:28:00,5,0,-45.0,0.0,400
2017/11/16,18:29:00,5,0,-45.0,0.0,400
2017/11/16,18:30:00,5,0,-45.0,0.0,400
2017/11/16,18:31:00,5,0,-45.0,0.0,400
2017/11/16,18:32:00,5,0,-45.0,0.0,400
2017/11/16,18:33:00,5,0,-45.0,0.0,400
2017/11/16,18:34:00,5,0,-45.0,0.0,400
2017/11/16,18:35:00,5,0,-45.0,0.0,400
2017/11/16,18:36:00,5,0,-45.0,0.0,400
2017/11/16,18:37:00,5,0,-45.0,0.0,400
2017/11/16,18:38:00,5,0,-45.0,0.0,400
2017/11/16,18:39:00,5,0,-45.0,0.0,400
2017/11/16,18:40:00,5,0,-45.0,0.0,400
2017/11/16,18:41:00,5,0,-45.0,0.0,400
2017/11/16,18:42:00,5,0,-45.0,0.0,400
2017/11/16,18:43:00,5,0,-45.0,0.0,400
2017/11/16,18:44:00,5,0,-45.0,0.0,400
2017/11/16,18:45:00,5,0,-45.0,0.0,400
2017/11/16,18:46:00,5,0,-45.0,0.0,400
2017/11/16,18:47:00,5,0,-45.0,0.0,400
2017/11/16,18:48:00,5,0,-45.0,0.0,400
2017/11/16,18:49:00,5,0,-45.0,0.0,400
2017/11/16,18:50:00,5,0,-45.0,0.0,400
2017/11/16,18:51:00,5,0,-45.0,0.0,400
2017/11/16,18:52:00,5,0,-45.0,0.0,400
2017/11/16,18:53:00,5,0,-45.0,0.0,400
2017/11/16,18:54:00,5,0,-45.0,0.0,400
2017/11/16,18:55:00,5,0,-45.0,0.0,400
2017/11/16,18:56:00,5,0,-45.0,0.0,400
2017/11/16,18:57:00,5,0,-45.0,0.0,400
2017/11/16,18:58:00,5,0,-45.0,0.0,400
2017/11/16,18:59:00,5,0,-45.0,0.0,400
2017/11/16,19:00:00,5,0,-45.0,0.0,400
2017/11/16,19:01:00,5,0,-45.0,0.0,400
2017/11/16,19:02:00,5,0,-45.0,0.0,400
2017/11/16,19:03:00,5,0,-45.0,0.0,400
2017/11/16,19:04:00,5,0,-45.0,0.0,400
2017/11/16,19:05:00,5,0,-45.0,0.0,400
2017/11/16,19:06:00,5,0,-45.0,0.0,400
2017/11/16,19:07:00,5,0,-45.0,0.0,400
2017/11/16,19:08:00,5,0,-45.0,0.0,400
2017/11/16,19:09:00,5,0,-45.0,0.0,400
2017/11/16,19:10:00,5,0,-45.0,0.0,400
2017/11/16,19:11:00,5,0,-45.0,0.0,400
2017/11/16,19:12:00,5,0,-45.0,0.0,400
2017/11/16,19:13:00,5,0,-45.0,0.0,400
2017/11/16,19:14:00,5,0,-45.0,0.0,400
2017/11/16,19:15:00,5,0,-45.0,0.0,400
2017/11/16,19:16:00,5,0,-45.0,0.0,400
2017/11/16,19:17:00,5,0,-45.0,0.0,400
2017/11/16,19:18:00,5,0,-45.0,0.0,400
2017/11/16,19:19:00,5,0,-45.0,0.0,400
2017/11/16,19:20:00,5,0,-45.0,0.0,400
2017/11/16,19:21:00,5,0,-45.0,0.0,400
2017/11/16,19:22:00,5,0,-45.0,0.0,400
2017/11/16,19:23:00,5,0,-45.0,0.0,400
2017/11/16,19:24:00,5,0,-45.0,0.0,400
2017/11/16,19:25:00,5,0,-45.0,0.0,400
2017/11/16,19:26:00,5,0,-45.0,0.0,400
2017/11/16,19:27:00,5,0,-45.0,0.0,400
2017/11/16,19:28:00,5,0,-45.0,0.0,400
2017/11/16,19:29:00,5,0,-45.0,0.0,400
2017/11/16,19:30:00,5,0,-45.0,0.0,400
2017/11/16,19:31:00,5,0,-45.0,0.0,400
2017/11/16,19:32:00,5,0,-45.0,0.0,400
2017/11/16,19:33:00,5,0,-45.0,0.0,400
2017/11/16,19:34:00,5,0,-45.0,0.0,400
2017/11/16,19:35:00,5,0,-45.0,0.0,400
2017/11/16,19:36:00,5,0,-45.0,0.0,400
2017/11/16,19:37:00,5,0,-45.0,0.0,400
2017/11/16,19:38:00,5,0,-45.0,0.0,400
2017/11/16,19:39:00,5,0,-45.0,0.0,400
2017/11/16,19:40:00,5,0,-45.0,0.0,400
2017/11/16,19:41:00,5,0,-45.0,0.0,400
2017/11/16,19:42:00,5,0,-45.0,0.0,400
2017/11/16,19:43:00,5,0,-45.0,0.0,400
2017/11/16,19:44:00,5,0,-45.0,0.0,400
2017/11/16,19:45:00,5,0,-45.0,0.0,400
2017/11/16,19:46:00,5,0,-45.0,0.0,400
2017/11/16,19:47:00,5,0,-45.0,0.0,400
2017/11/16,19:48:00,5,0,-45.0,0.0,400
2017/11/16,19:49:00,5,0,-45.0,0.0,400
2017/11/16,19:50:00,5,0,-45.0,0.0,400
2017/11/16,19:51:00,5,0,-45.0,0.0,400
2017/11/16,19:52:00,5,0,-45.0,0.0,400
2017/11/16,19:53:00,5,0,-45.0,0.0,400
2017/11/16,19:54:00,5,0,-45.0,0.0,400
2017/11/16,19:55:00,5,0,-45.0,0.0,400
2017/11/16,19:56:00,5,0,-45.0,0.0,400
2017/11/16,19:57:00,5,0,-45.0,0.0,400
2017/11/16,19:58:00,5,0,-45.0,0.0,400
2017/11/16,19:59:00,5,0,-45.0,0.0,400
2017/11/16,20:00:00,5,0,-45.0,0.0,400
2017/11/16,20:01:00,5,0,-45.0,0.0,400
2017/11/16,20:02:00,5,0,-45.0,0.0,400
2017/11/16,20:03:00,5,0,-45.0,0.0,400
2017/11/16,20:04:00,5,0,-45.0,0.0,400
2017/11/16,20:05:00,5,0,-45.0,0.0,400
2017/11/16,20:06:00,5,0,-45.0,0.0,400
2017/11/16,20:07:00,5,0,-45.0,0.0,400
2017/11/16,20:08:00,5,0,-45.0,0.0,400
2017/11/16,20:09:00,5,0,-45.0,0.0,400
2017/11/16,20:10:00,5,0,-45.0,0.0,400
2017/11/16,20:11:00,5,0,-45.0,0.0,400
2017/11/16,20:12:00,5,0,-45.0,0.0,400
2017/11/16,20:13:00,5,0,-45.0,0.0,400
2017/11/16,20:14:00,5,0,-45.0,0.0,400
2017/11/16,20:15:00,5,0,-45.0,0.0,400
2017/11/16,20:16:00,5,0,-45.0,0.0,400
2017/11/16,20:17:00,5,0,-45.0,0.0,400
2017/11/16,20:18:00,5,0,-45.0,0.0,400
2017/11/16,20:19:00,5,0,-45.0,0.0,400
2017/11/16,20:20:00,5,0,-45.0,0.0,400
2017/11/16,20:21:00,5,0,-45.0,0.0,400
2017/11/16,20:22:00,5,0,-45.0,0.0,400
2017/11/16,20:23:00,5,0,-45.0,0.0,400
2017/11/16,20:24:00,5,0,-45.0,0.0,400
2017/11/16,20:25:00,5,0,-45.0,0.0,400
2017/11/16,20:26:00,5,0,-45.0,0.0,400
2017/11/16,20:27:00,5,0,-45.0,0.0,400
2017/11/16,20:28:00,5,0,-45.0,0.0,400
2017/11/16,20:29:00,5,0,-45.0,0.0,400
2017/11/16,20:30:00,5,0,-45.0,0.0,400
2017/11/16,20:31:00,5,0,-45.0,0.0,400
2017/11/16,20:32:00,5,0,-45.0,0.0,400
2017/11/16,20:33:00,5,0,-45.0,0.0,400
2017/11/16,20:34:00,5,0,-45.0,0.0,400
2017/11/16,20:35:00,5,0,-45.0,0.0,400
2017/11/16,20:36:00,5,0,-45.0,0.0,400
2017/11/16,20:37:00,5,0,-45.0,0.0,400
2017/11/16,20:38:00,5,0,-45.0,0.0,400
2017/11/16,20:39:00,5,0,-45.0,0.0,400
2017/11/16,20:40:00,5,0,-45.0,0.0,400
2017/11/16,20:41:00,5,0,-45.0,0.0,400
2017/11/16,20:42:00,5,0,-45.0,0.0,400
2017/11/16,20:43:00,5,0,-45.0,0.0,400
2017/11/16,20:44:00,5,0,-45.0,0.0,400
2017/11/16,20:45:00,5,0,-45.0,0.0,400
2017/11/16,20:46:00,5,0,-45.0,0.0,400
2017/11/16,20:47:00,5,0,-45.0,0.0,400
2017/11/16,20:48:00,5,0,-45.0,0.0,400
2017/11/16,20:51:00,5,0,-45.0,0.0,400
2017/11/16,20:52:00,5,0,-45.0,0.0,400
2017/11/16,20:53:00,5,0,-45.0,0.0,400
2017/11/16,20:54:00,5,0,-45.0,0.0,400
2017/11/16,20:55:00,5,0,-45.0,0.0,400
2017/11/16,20:56:00,5,0,-45.0,0.0,400
2017/11/16,20:57:00,5,0,-45.0,0.0,400
2017/11/16,20:58:00,5,0,-45.0,0.0,400
2017/11/16,20:59:00,5,0,-45.0,0.0,400
2017/11/16,21:00:00,5,0,-45.0,0.0,400
2017/11/16,21:01:00,5,0,-45.0,0.0,400
2017/11/16,21:02:00,5,0,-45.0,0.0,400
2017/11/16,21:03:00,5,0,-45.0,0.0,400
2017/11/16,21:04:00,5,0,-45.0,0.0,400
2017/11/16,21:05:00,5,0,-45.0,0.0,400
2017/11/16,21:06:00,5,0,-45.0,0.0,400
2017/11/16,21:07:00,5,0,-45.0,0.0,400
2017/11/16,21:08:00,5,0,-45.0,0.0,400
2017/11/16,21:09:00,5,0,-45.0,0.0,400
2017/11/16,21:10:00,5,0,-45.0,0.0,400
2017/11/16,21:11:00,5,0,-45.0,0.0,400
2017/11/16,21:12:00,5,0,-45.0,0.0,400
2017/11/16,21:13:00,5,0,-45.0,0.0,400
2017/11/16,21:14:00,5,0,-45.0,0.0,400
2017/11/16,21:15:00,5,0,-45.0,0.0,400
2017/11/16,21:16:00,5,0,-45.0,0.0,400
2017/11/16,21:17:00,5,0,-45.0,0.0,400
2017/11/16,21:18:00,5,0,-45.0,0.0,400
2017/11/16,21:19:00,5,0,-45.0,0.0,400
2017/11/16,21:20:00,5,0,-45.0,0.0,400
2017/11/16,21:21:00,5,0,-45.0,0.0,400
2017/11/16,21:22:00,5,0,-45.0,0.0,400
2017/11/16,21:23:00,5,0,-45.0,0.0,400
2017/11/16,21:24:00,5,0,-45.0,0.0,400
2017/11/16,21:25:00,5,0,-45.0,0.0,400
2017/11/16,21:26:00,5,0,-45.0,0.0,400
2017/11/16,21:27:00,5,0,-45.0,0.0,400
2017/11/16,21:28:00,5,0,-45.0,0.0,400
2017/11/16,21:29:00,5,0,-45.0,0.0,400
2017/11/16,21:30:00,5,0,-45.0,0.0,400
2017/11/16,21:31:00,5,0,-45.0,0.0,400
2017/11/16,21:32:00,5,0,-45.0,0.0,400
2017/11/16,21:33:00,5,0,-45.0,0.0,400
2017/11/16,21:34:00,5,0,-45.0,0.0,400
2017/11/16,21:35:00,5,0,-45.0,0.0,400
2017/11/16,21:36:00,5,0,-45.0,0.0,400
2017/11/16,21:37:00,5,0,-45.0,0.0,400
2017/11/16,21:38:00,5,0,-45.0,0.0,400
2017/11/16,21:39:00,5,0,-45.0,0.0,400
2017/11/16,21:40:00,5,0,-45.0,0.0,400
2017/11/16,21:41:00,5,0,-45.0,0.0,400
2017/11/16,21:42:00,5,0,-45.0,0.0,400
2017/11/16,21:43:00,5,0,-45.0,0.0,400
2017/11/16,21:44:00,5,0,-45.0,0.0,400
2017/11/16,21:45:00,5,0,-45.0,0.0,400
2017/11/16,21:46:00,5,0,-45.0,0.0,400
2017/11/16,21:47:00,5,0,-45.0,0.0,400
2017/11/16,21:49:00,5,0,-45.0,0.0,400
2017/11/16,21:50:00,5,0,-45.0,0.0,400
2017/11/16,21:51:00,5,0,-45.0,0.0,400
2017/11/16,21:52:00,5,0,-45.0,0.0,400
2017/11/16,21:53:00,5,0,-45.0,0.0,400
2017/11/16,21:54:00,5,0,-45.0,0.0,400
2017/11/16,21:55:00,5,0,-45.0,0.0,400
2017/11/16,21:56:00,5,0,-45.0,0.0,400
2017/11/16,21:57:00,5,0,-45.0,0.0,400
2017/11/16,21:58:00,5,0,-45.0,0.0,400
2017/11/16,21:59:00,5,0,-45.0,0.0,400